CREW DRAGON 4 DEB

Last updated on Wed Apr 05 2023 00:02:11 GMT+0000 (Coordinated Universal Time)

1 54047U 22042B 23094.74146456 .06854864 12141-4 11353-2 0 9994 2 54047 51.2978 301.9841 0010736 256.0268 151.4304 16.32361752 26996

Satellite not in orbit